Location: ??????
(42.0089°N, 44.3281°E)
Time: 23:34:36
(UTC+00:00)

Cosmos 2251 Rocket - Pass Details

Date: 05 June 2022
Orbit: 764 x 791 km, 74.0° (Epoch: 03 July)

Event Time Altitude Azimuth Distance (km) Brightness Sun altitude
Rises 23:11:02 0° 323° (NW) 3,259 7.0 -18.7°
Reaches altitude 10° 23:14:12 10° 303° (WNW) 2,331 6.0 -18.4°
Maximum altitude 23:17:29 17° 265° (W) 1,899 5.2 -18.1°
Enters shadow 23:17:30 17° 265° (W) 1,899 5.2 -18.1°
